User: anonymous   Login
Location: Unspecified
(0.0000°N, 0.0000°E)
Time: 22:15:28
(UTC+00:00)
Language:

STARLINK-31586 - Orbit

View from above orbital plane
View from above orbital plane
View from above satellite
View from above satellite

Ground track
Ground track

The orbit is defined by the following mean orbital elements,

1 59205U          26145.45957030 +.00000000 +00000-0 +20295-4 0 00007
2 59205  53.1595 158.7292 0001078  72.5087 287.6032 15.30199379    05
Epoch (UTC): 25 May 2026 11:01:46
Eccentricity: 0.0001078
inclination: 53.1595°
perigee height: 474 km
apogee height: 476 km
right ascension of ascending node: 158.7292°
argument of perigee: 72.5087°
revolutions per day: 15.30199379
mean anomaly at epoch: 287.6032°

The dashed part of the orbit path shows where the satellite is in the earth's shadow,  

DLR